History for Ft Lauderdale, FL

Monday, February 20, 2017 — View Current Conditions

Jump to Data:

Date:
Airport Code:
Recently Viewed Airport Codes: KFLL
Daily Summary
  Actual Average Record
Temperature
Mean Temperature 74°F 71°F  
Max Temperature 81°F 78°F 87°F (1956)
Min Temperature 66°F 64°F 40°F (1958)
Degree Days
Heating Degree Days 0 1  
Month to date heating degree days 0 20  
Since 1 July heating degree days 29 100  
Cooling Degree Days 9 7  
Month to date cooling degree days 164 131  
Year to date cooling degree days 377 301  
Growing Degree Days 23 (Base 50)    
Moisture
Dew Point 62°F    
Average Humidity 71    
Maximum Humidity 87    
Minimum Humidity 54    
Precipitation
Precipitation 0.00 in 0.09 in 1.39 in (1942)
Month to date precipitation 0.13 2.21  
Year to date precipitation 1.84 5.84  
Snow
Snow 0.00 in in in ()
Month to date snowfall 0.0  
Since 1 July snowfall 0.0  
Snow Depth 0.00 in    
Sea Level Pressure
Sea Level Pressure 30.08 in    
Wind
Wind Speed 8 mph (NE)    
Max Wind Speed 17 mph    
Max Gust Speed 21 mph    
Visibility 10 miles    
Events      
T = Trace of Precipitation, MM = Missing Value Source: NWS Daily Summary

Show full METARS

(help) - Comma Delimited File

Hourly Observations

Time(EST) Temperature Dew Point Humidity Sea Level Pressure Visibility Wind Direction Wind Speed Gust Speed Precipitation Events Conditions
12:53 AM 72.0°F 64.0°F 76% 30.06 in 10.0 miles North 3.5 mph - N/A   Mostly Cloudy
1:53 AM 72.0°F 64.0°F 76% 30.06 in 10.0 miles North 3.5 mph - N/A   Overcast
2:53 AM 69.1°F 62.1°F 78% 30.05 in 10.0 miles NNE 3.5 mph - N/A   Scattered Clouds
3:53 AM 68.0°F 63.0°F 84% 30.05 in 10.0 miles Calm Calm - N/A   Partly Cloudy
4:53 AM 66.9°F 63.0°F 87% 30.06 in 10.0 miles NNW 4.6 mph - N/A   Partly Cloudy
5:53 AM 66.0°F 63.0°F 90% 30.06 in 10.0 miles North 5.8 mph - N/A   Partly Cloudy
6:53 AM 66.9°F 63.0°F 87% 30.07 in 10.0 miles Calm Calm - N/A   Scattered Clouds
7:53 AM 69.1°F 64.0°F 84% 30.09 in 10.0 miles North 5.8 mph - N/A   Scattered Clouds
8:53 AM 75.0°F 66.0°F 73% 30.11 in 10.0 miles North 4.6 mph - N/A   Scattered Clouds
9:53 AM 79.0°F 64.0°F 60% 30.13 in 10.0 miles NE 8.1 mph - N/A   Mostly Cloudy
10:53 AM 80.1°F 62.1°F 54% 30.13 in 10.0 miles ENE 15.0 mph - N/A   Partly Cloudy
11:53 AM 80.1°F 63.0°F 56% 30.11 in 10.0 miles East 13.8 mph - N/A   Mostly Cloudy
12:53 PM 77.0°F 61.0°F 58% 30.10 in 10.0 miles East 10.4 mph - N/A   Mostly Cloudy
1:53 PM 77.0°F 62.1°F 60% 30.07 in 10.0 miles East 15.0 mph - N/A   Scattered Clouds
2:53 PM 79.0°F 62.1°F 56% 30.06 in 10.0 miles East 15.0 mph - N/A   Scattered Clouds
3:53 PM 78.1°F 62.1°F 58% 30.06 in 10.0 miles East 13.8 mph - N/A   Scattered Clouds
4:53 PM 78.1°F 62.1°F 58% 30.07 in 10.0 miles East 6.9 mph - N/A   Partly Cloudy
5:53 PM 75.0°F 61.0°F 62% 30.07 in 10.0 miles East 12.7 mph - N/A   Scattered Clouds
6:53 PM 73.9°F 61.0°F 64% 30.10 in 10.0 miles ENE 9.2 mph - N/A   Mostly Cloudy
7:53 PM 73.9°F 61.0°F 64% 30.10 in 10.0 miles ENE 10.4 mph - N/A   Mostly Cloudy
8:53 PM 73.0°F 61.0°F 66% 30.10 in 10.0 miles ENE 9.2 mph - N/A   Scattered Clouds
9:53 PM 73.0°F 60.1°F 64% 30.10 in 10.0 miles East 9.2 mph - N/A   Scattered Clouds
10:53 PM 72.0°F 59.0°F 64% 30.09 in 10.0 miles East 8.1 mph - N/A   Clear
11:53 PM 72.0°F 57.9°F 61% 30.07 in 10.0 miles ENE 8.1 mph - N/A   Partly Cloudy